Vorticity
8 11 13 14 5 1 3 -5 -2 8 5 23 12 16 13 6 -10 7 -3 -8 12 5 3 5 5 2 12 12 10 8 5 5 4 4 4 3 4 4 5 3 3 3 3 3 3 3 3 3 3
9 11 12 8 -5 3 -2 15 17 15 19 26 11 0 4 4 -2 6 3 2 10 3 11 7 8 5 8 12 12 8 5 6 5 4 4 3 4 3 3 4 4 4 4 4 4 4 4 3 3
11 11 18 7 11 -2 -2 15 3 -9 15 6 1 -4 2 -4 -4 5 12 6 7 -0 4 7 6 5 7 8 8 8 6 7 7 4 4 3 4 3 2 3 3 4 4 4 4 4 4 3 2
11 10 9 -0 -19 -8 -0 1 -15 -12 19 1 6 -2 1 2 9 5 13 5 1 2 1 7 6 9 8 7 8 8 8 8 9 5 5 4 4 2 3 3 3 4 4 5 5 4 4 3 1
12 10 11 -1 -5 2 12 2 -4 7 4 47 -6 8 5 8 11 4 1 2 -0 12 14 8 7 5 7 7 9 7 7 7 8 6 5 5 4 3 3 3 3 4 4 4 5 5 4 3 2
12 12 -8 1 -2 7 15 5 3 1 -6 33 -1 11 10 8 4 2 -4 4 0 1 11 6 9 6 7 11 10 8 6 8 7 6 5 5 3 3 3 3 4 4 4 4 5 4 4 2 1
16 10 -2 4 -3 5 22 1 1 -2 10 39 3 16 -0 -7 -1 5 5 7 14 1 12 5 8 5 6 9 10 10 7 8 9 7 6 5 3 3 4 4 3 4 4 5 5 5 4 2 2
14 21 1 3 3 4 5 9 -4 -3 3 29 11 7 1 8 12 10 8 12 1 4 9 14 6 4 5 6 12 14 9 6 9 7 7 4 3 4 4 3 4 4 5 4 4 4 4 2 2
8 20 0 4 15 -2 4 16 0 -10 12 -9 23 10 12 9 5 14 2 5 5 14 4 22 8 4 5 8 12 13 11 7 6 7 6 4 3 4 4 5 4 3 4 3 4 4 3 1 4
4 -7 -4 2 -2 3 4 16 3 -18 -2 8 4 3 5 17 17 -4 2 15 1 0 5 14 16 4 6 6 9 9 12 11 9 5 4 5 5 5 4 5 4 4 4 5 5 4 4 2 6
1 -2 5 2 0 0 9 13 6 -6 9 5 4 -6 11 3 -2 -0 6 5 7 1 3 3 22 5 4 9 7 10 9 10 9 7 5 5 4 5 6 5 5 4 5 5 5 6 3 5 6
-3 -18 -17 16 5 -1 4 -13 -10 -5 13 -1 6 -1 -1 4 2 18 5 7 8 7 4 -2 28 7 3 4 8 6 10 9 9 8 7 6 7 6 6 6 5 5 5 5 5 4 4 7 5
1 0 9 26 11 5 0 -1 6 43 -3 12 5 3 8 4 2 3 9 7 1 -2 4 3 19 10 4 1 7 8 10 10 8 7 8 6 8 9 7 6 5 5 5 5 4 5 5 7 5
9 13 9 12 19 11 6 3 -10 12 -7 8 8 2 2 -0 -1 -1 4 4 4 9 2 7 4 15 5 2 4 9 10 11 10 8 7 5 5 7 7 6 6 5 5 5 5 5 5 7 5
21 9 3 11 14 18 20 16 0 -6 4 -2 -4 7 10 4 3 -1 2 1 0 4 9 4 -2 22 9 1 1 5 6 7 8 7 8 8 8 8 7 6 5 6 5 6 5 4 4 5 4
-15 -13 -4 8 17 16 43 10 17 26 33 24 24 27 7 10 7 22 -3 3 1 -0 -2 4 1 6 16 10 2 2 4 4 4 6 6 6 7 9 7 6 6 5 5 5 5 5 5 7 6
27 -3 2 15 13 6 2 -6 18 12 20 29 28 27 16 22 28 17 20 10 -5 -12 -9 -3 5 4 4 21 5 4 3 4 5 2 5 5 8 9 9 7 6 4 4 5 6 5 5 6 6
13 17 -1 -7 9 -1 6 9 7 8 0 2 6 5 -2 3 11 29 25 20 17 25 30 12 7 3 2 3 18 9 5 4 2 3 3 2 5 9 9 9 7 5 4 4 6 5 6 5 5
-6 -32 -9 6 7 -1 12 14 10 18 1 -3 -2 2 6 21 4 9 7 6 8 -1 1 26 9 14 7 1 4 6 11 6 1 5 3 2 3 8 7 8 7 5 6 6 6 6 6 5 4
8 7 7 7 1 15 6 14 5 8 15 10 6 6 -6 -7 30 -5 1 8 9 16 -5 0 16 6 10 5 6 9 4 7 22 12 7 5 4 4 7 8 8 6 7 6 6 6 5 5 5
2 0 3 1 1 -0 7 15 4 7 4 10 9 13 9 5 -12 35 -6 6 2 2 5 10 0 6 13 9 5 6 6 6 2 14 11 6 4 6 8 8 7 8 6 7 6 7 4 6 7
6 24 18 13 4 -9 18 6 -1 17 20 10 17 11 17 8 2 -8 36 13 -2 3 6 7 8 2 7 13 5 4 4 8 6 5 31 8 3 4 5 10 9 6 7 7 6 6 4 5 7
-23 15 13 26 21 24 21 -1 22 -22 -16 -4 -9 10 33 29 28 14 -6 -12 8 10 6 2 9 7 5 0 10 12 5 13 4 1 10 8 21 9 5 5 14 6 7 9 6 5 5 6 5
7 13 16 13 21 44 -4 -30 39 -10 -2 27 23 11 7 8 5 5 19 20 28 9 7 2 5 3 15 5 5 4 7 9 0 7 12 19 17 21 11 7 9 10 6 7 7 6 4 5 5
12 8 37 40 31 -12 17 46 -41 -3 -5 -5 1 4 5 9 14 8 -18 -11 -6 10 20 16 15 4 -5 5 14 7 4 5 3 3 2 4 12 18 18 9 6 14 9 8 7 6 5 4 5
11 20 -64 10 20 33 43 29 5 28 21 8 13 16 14 15 18 21 24 27 -6 13 0 8 28 25 12 9 5 12 6 7 9 7 5 4 4 8 18 16 11 11 9 10 10 8 5 4 6
44 25 17 2 25 41 -8 -23 -44 9 38 13 19 10 6 12 11 13 31 9 17 13 13 40 1 -1 13 15 8 18 11 11 10 9 6 7 5 2 17 13 13 11 10 15 12 15 9 9 4
1 25 24 36 19 21 45 20 -0 50 34 6 -0 -9 6 18 24 26 6 -1 7 10 3 6 17 14 11 20 4 20 15 13 13 8 9 3 3 24 27 14 14 9 6 7 8 22 29 2 -2
18 7 -1 4 17 12 9 -2 28 31 20 17 12 14 6 20 35 33 17 20 12 5 13 21 12 16 19 35 13 26 12 12 10 7 -3 -0 8 30 15 23 18 15 10 12 14 3 12 14 13
2 15 22 -12 15 6 8 5 -2 -26 -24 0 2 9 7 -1 14 15 32 24 23 12 6 6 6 4 13 6 23 5 5 18 8 3 12 24 23 19 10 10 18 14 10 4 14 11 9 16 11
Height
3144 3142 3141 3142 3146 3137 3128 3125 3128 3129 3131 3129 3130 3131 3130 3128 3129 3130 3127 3128 3129 3130 3132 3136 3137 3139 3141 3141 3143 3145 3147 3150 3153 3156 3158 3160 3162 3164 3166 3167 3168 3169 3170 3171 3172 3172 3172 3171 3169
3141 3139 3139 3138 3139 3132 3123 3124 3127 3129 3127 3125 3129 3128 3126 3126 3127 3126 3126 3125 3128 3130 3133 3134 3135 3138 3139 3140 3141 3143 3146 3148 3151 3154 3157 3158 3160 3162 3163 3165 3167 3168 3170 3170 3171 3171 3171 3170 3169
3138 3137 3138 3136 3131 3124 3121 3123 3124 3126 3126 3126 3128 3125 3123 3124 3124 3124 3124 3124 3126 3129 3132 3133 3133 3136 3137 3138 3139 3140 3142 3144 3148 3151 3154 3156 3158 3160 3161 3164 3165 3167 3168 3169 3170 3170 3170 3169 3168
3135 3135 3135 3130 3124 3120 3121 3121 3124 3122 3122 3124 3125 3122 3120 3120 3120 3123 3123 3122 3124 3126 3128 3130 3131 3133 3135 3135 3137 3139 3140 3142 3145 3148 3151 3154 3156 3157 3160 3162 3164 3165 3167 3168 3168 3169 3168 3167 3167
3133 3130 3129 3122 3120 3116 3119 3119 3122 3118 3118 3118 3121 3119 3116 3117 3117 3118 3120 3120 3121 3123 3125 3128 3129 3131 3132 3133 3133 3136 3138 3140 3142 3145 3149 3152 3154 3155 3158 3160 3162 3163 3165 3166 3167 3167 3166 3165 3167
3128 3127 3124 3118 3115 3113 3113 3117 3117 3116 3113 3114 3116 3115 3114 3114 3115 3115 3116 3118 3119 3121 3123 3124 3126 3128 3129 3130 3131 3132 3134 3136 3139 3142 3146 3150 3151 3154 3156 3158 3160 3162 3163 3164 3165 3165 3165 3164 3167
3124 3121 3117 3114 3110 3106 3108 3115 3114 3114 3111 3111 3113 3109 3109 3107 3110 3111 3112 3114 3115 3117 3119 3121 3123 3125 3125 3126 3127 3129 3131 3133 3136 3139 3143 3146 3148 3151 3154 3156 3158 3159 3160 3162 3163 3163 3163 3162 3166
3119 3117 3112 3109 3109 3099 3104 3107 3108 3110 3107 3111 3111 3107 3106 3104 3106 3107 3107 3110 3112 3113 3115 3117 3119 3121 3122 3123 3123 3125 3127 3130 3133 3136 3140 3142 3145 3148 3150 3153 3155 3156 3158 3159 3160 3161 3161 3161 3164
3115 3111 3104 3104 3107 3098 3100 3103 3101 3105 3103 3104 3106 3105 3103 3102 3102 3102 3103 3105 3109 3109 3111 3112 3114 3117 3118 3119 3120 3121 3123 3127 3130 3133 3136 3138 3141 3143 3146 3149 3151 3152 3155 3157 3158 3159 3158 3160 3163
3108 3103 3099 3103 3103 3096 3094 3097 3095 3099 3096 3097 3100 3101 3099 3098 3098 3099 3100 3102 3104 3106 3107 3108 3109 3112 3113 3115 3116 3117 3119 3121 3124 3126 3131 3134 3137 3140 3142 3145 3147 3149 3151 3153 3155 3155 3154 3158 3160
3099 3093 3096 3095 3097 3096 3091 3087 3089 3092 3085 3093 3095 3096 3093 3093 3094 3094 3095 3097 3099 3101 3103 3104 3105 3107 3109 3111 3112 3113 3115 3117 3120 3124 3126 3129 3132 3135 3138 3141 3143 3145 3148 3150 3152 3153 3151 3156 3159
3090 3090 3090 3089 3090 3089 3084 3083 3077 3082 3078 3086 3088 3091 3089 3087 3088 3089 3091 3092 3094 3095 3097 3099 3101 3103 3105 3106 3108 3109 3111 3114 3116 3120 3122 3124 3126 3129 3134 3137 3140 3142 3144 3147 3149 3150 3149 3154 3156
3084 3083 3082 3081 3079 3078 3078 3074 3072 3062 3071 3075 3079 3083 3082 3081 3081 3084 3084 3086 3087 3089 3092 3094 3096 3099 3101 3102 3104 3105 3108 3109 3113 3115 3118 3121 3123 3126 3129 3133 3135 3138 3140 3142 3144 3146 3146 3150 3153
3076 3075 3072 3071 3067 3069 3069 3066 3071 3056 3066 3066 3069 3071 3075 3073 3074 3076 3077 3078 3080 3084 3085 3087 3090 3093 3095 3098 3100 3101 3103 3104 3107 3110 3112 3115 3118 3122 3125 3128 3130 3132 3135 3138 3141 3142 3141 3146 3149
3069 3064 3063 3058 3059 3059 3064 3054 3051 3053 3061 3059 3060 3061 3064 3065 3065 3065 3068 3070 3074 3077 3080 3081 3084 3086 3088 3092 3094 3096 3098 3100 3101 3104 3107 3110 3114 3117 3120 3123 3125 3128 3131 3134 3136 3137 3137 3140 3145
3062 3059 3050 3048 3052 3053 3057 3036 3042 3051 3051 3049 3049 3050 3051 3054 3054 3055 3058 3061 3065 3069 3070 3075 3077 3080 3082 3086 3088 3090 3092 3094 3096 3099 3102 3105 3108 3112 3115 3118 3121 3123 3126 3128 3131 3133 3133 3136 3139
3053 3034 3040 3043 3046 3046 3046 3030 3036 3040 3039 3036 3038 3040 3042 3042 3043 3044 3047 3051 3056 3059 3063 3066 3070 3073 3076 3079 3082 3084 3086 3088 3090 3092 3095 3099 3102 3106 3109 3112 3116 3117 3120 3123 3126 3129 3129 3130 3134
3032 3032 3034 3037 3042 3040 3033 3020 3027 3029 3029 3028 3029 3031 3033 3034 3034 3037 3039 3042 3049 3051 3053 3057 3061 3065 3068 3071 3073 3076 3078 3080 3083 3086 3089 3092 3096 3100 3103 3107 3109 3111 3114 3117 3120 3123 3125 3124 3127
3032 3030 3026 3031 3036 3035 3029 3009 3014 3019 3018 3019 3019 3019 3022 3025 3031 3035 3038 3038 3038 3044 3045 3047 3051 3055 3056 3058 3062 3066 3069 3072 3076 3079 3081 3085 3089 3092 3094 3099 3101 3104 3107 3112 3116 3118 3119 3119 3119
3025 3021 3017 3025 3032 3032 3027 2993 3002 3007 3005 3008 3010 3012 3015 3020 3023 3027 3031 3031 3026 3030 3036 3038 3041 3044 3047 3051 3055 3058 3062 3063 3068 3072 3073 3075 3078 3083 3088 3091 3094 3097 3099 3102 3106 3110 3112 3113 3114
3018 3011 3018 3016 3025 3021 3024 2989 2990 2990 2995 2997 2999 3005 3010 3011 3013 3015 3021 3023 3021 3017 3025 3028 3032 3032 3037 3042 3046 3048 3051 3052 3051 3058 3063 3065 3069 3073 3078 3083 3085 3088 3090 3094 3099 3102 3104 3106 3108
3008 3012 3010 3012 3019 3010 3020 2986 2971 2979 2979 2983 2993 2999 2999 3002 3005 3007 3007 3013 3014 3009 3012 3016 3022 3024 3027 3029 3032 3036 3039 3040 3045 3050 3058 3060 3061 3063 3066 3071 3075 3079 3083 3086 3090 3094 3096 3098 3100
2987 3011 3007 3007 3005 3005 3001 3000 2924 2971 2966 2975 2986 2986 2988 2992 2995 2996 2998 3001 3004 3006 3001 3003 3008 3012 3016 3018 3020 3024 3028 3033 3036 3038 3042 3048 3052 3054 3055 3060 3065 3069 3073 3077 3079 3084 3085 3089 3092
2994 3000 2999 2998 2998 2992 2968 2990 2968 2956 2950 2978 2976 2976 2975 2978 2982 2982 2983 2987 2991 2994 2993 2993 2995 3000 3003 3007 3010 3013 3018 3023 3025 3029 3030 3035 3042 3045 3045 3050 3054 3059 3063 3067 3071 3074 3076 3081 3084
2988 2988 2985 2982 2978 2963 2957 2977 2969 2934 2966 2967 2964 2964 2964 2965 2968 2970 2973 2976 2978 2980 2981 2981 2983 2988 2991 2994 2998 3002 3008 3012 3015 3018 3020 3025 3029 3033 3036 3041 3043 3047 3053 3058 3061 3064 3067 3071 3074
2973 2977 2974 2962 2961 2958 2960 2952 2944 2955 2952 2953 2952 2952 2951 2951 2953 2955 2957 2961 2965 2967 2969 2971 2971 2976 2979 2982 2987 2992 2997 3002 3005 3008 3011 3014 3018 3023 3027 3030 3033 3037 3042 3047 3051 3055 3058 3061 3064
2961 2960 2963 2959 2956 2957 2950 2944 2944 2948 2948 2947 2944 2943 2942 2942 2944 2946 2948 2950 2950 2955 2957 2959 2962 2964 2967 2970 2976 2981 2987 2990 2994 2998 3000 3002 3005 3011 3016 3019 3022 3027 3033 3037 3041 3045 3047 3049 3052
2948 2951 2954 2947 2946 2937 2932 2931 2932 2933 2938 2938 2937 2936 2934 2933 2933 2937 2939 2939 2940 2943 2945 2948 2951 2953 2956 2959 2963 2970 2975 2980 2985 2988 2991 2991 2994 2997 3002 3008 3012 3017 3023 3027 3031 3033 3035 3035 3040
2946 2941 2946 2949 2938 2939 2944 2935 2928 2929 2930 2931 2929 2930 2929 2927 2927 2928 2929 2928 2930 2932 2934 2938 2941 2944 2946 2952 2956 2959 2963 2968 2973 2978 2979 2980 2983 2985 2991 2996 3003 3008 3012 3017 3020 3021 3024 3026 3028
2942 2938 2939 2939 2940 2934 2939 2937 2932 2931 2934 2931 2925 2926 2925 2922 2926 2925 2925 2921 2921 2924 2928 2931 2934 2935 2939 2942 2947 2950 2954 2959 2963 2967 2969 2969 2971 2974 2982 2987 2992 2997 3002 3007 3009 3012 3014 3016 3015